Fall Classic Futurity - inventory

Station: INVENTORY - T Race

Distance: 1 Miles

Release: 06-Aug-2017 06:25

Weather Release:    Arrival:

Wind at Release:     Wind at Arrival:

Temp at Release: °    Temp at Arrival: °

Lofts: 54

Birds: 186

Clocked: 175

Good Luck to Everyone!
Drops Pos Breeder Pigeon Name Color Sex Ent Arrival Speed To Win Eligible
1 Money Loft - MN 11970-AU17-ARPU Double Crazy Al BC H 1 07:22:17.00 30.724 00:00:00 Yes
2 Mesopotamia Loft - MN 0354-AU17-MESO BB H 1 07:22:53.00 30.406 00:00:36 Yes
3 Ed Brockman - MN 0504-AU17-TSR BB H 1 07:22:54.00 30.397 00:00:37 Yes
4 Silver Loft - MN 0735-AU17-UNIT RCPD H 1 07:22:55.00 30.388 00:00:38 Yes
5 Nikolays Loft - MN 47157-AU17-ARPU BB H 1 07:22:57.00 30.371 00:00:40 Yes
6 Dank Loft - MN 4801-AU17-MM BB H 1 07:23:01.00 30.336 00:00:44 Yes
7 Meadowlands Mafia - MN 5996-AU17-VITA Donny Jo BC H 1 07:23:22.00 30.154 00:01:05 Yes
8 Reignfire Loft - MN 12850-AU17-ARPU Luna BB H 1 07:23:37.00 30.026 00:01:20 Yes
9 Wup Flyers - WI 0032-AU17-JUED "Juedes Pride" BBWF H 1 07:23:42.00 29.983 00:01:25 Yes
10 Prospector Loft/ Krug - IA 0056-AU17-PROS BB H 1 07:24:12.00 29.730 00:01:55 Yes
11 Goodfeathers - MN 0737-AU17-MPC BCWF H 1 07:24:35.00 29.538 00:02:18 Yes
12 Liab Family Loft - MN 0402-AU17-LIAB Red Star RDCH H 1 07:24:51.00 29.407 00:02:34 Yes
13 Jim Braun - WI 6093-AU17-RCR BB H 1 07:25:04.00 29.301 00:02:47 Yes
14 Roonies No1 Loft - WI 2262-AU17-WRP BC H 1 07:25:12.00 29.236 00:02:55 Yes
15 Bandido Loft - MN 1700-AU17-RVR BC H 1 07:25:17.00 29.195 00:03:00 Yes
16 Ed Brockman - MN 6228-AU17-AA BB H 2 07:25:19.00 29.179 00:03:02 Yes
17 Cherokee Loft - MI 0153-AU17-CHER BB H 1 07:26:24.00 28.664 00:04:07 Yes
18 Laemele Loft - MN 0771-AU17-UNIT BBWP H 1 07:26:46.00 28.494 00:04:29 Yes
19 The Flying Ariolas - WI 0095-AU17-NWM BRON H 1 07:26:49.00 28.471 00:04:32 Yes
20 Chris Holden - WI 6544-AU17-RCR BB H 2 07:26:50.00 28.464 00:04:33 Yes
21 Cherokee Loft - MI 0156-AU17-CHER BB H 2 07:27:18.00 28.250 00:05:01 Yes
22 Silver Loft - MN 0710-AU17-UNIT BB H 1 07:27:21.00 28.228 00:05:04 Yes
23 Sweetbiznas Loft - IA 0074-AU17-PROS BC H 1 07:27:34.00 28.130 00:05:17 Yes
24 Eaton Family Loft - MN 0134-AU17-TSR BB H 1 07:28:51.00 27.565 00:06:34 Yes
25 Midwest Loft Peter - WI 0651-AU17-MIDW 651 Deep BC H 1 07:29:15.00 27.393 00:06:58 Yes
25 Bandido Loft - MN 1760-AU17-RVR DKCH H 2 07:29:15.00 27.393 00:06:58 Yes
27 Meadowlands Mafia - MN 0043-AU17-TSR Gandalf BBWF H 2 07:29:58.00 27.091 00:07:41 Yes
28 Shamrock Loft Of Mi - MI 0444-AU17-NWM BC H 1 07:30:20.00 26.939 00:08:03 Yes
29 Cherry Hill Loft - MN 5639-AU17-MM BB H 1 07:30:59.00 26.673 00:08:42 Yes
30 The Flying Ariolas - WI 0033-AU17-NWM BC H 2 07:32:09.00 26.210 00:09:52 Yes
31 Rocky Coulee Loft - WI 6310-AU17-RCR BCPD H 1 07:34:56.00 25.167 00:12:39 Yes
32 Roonies No1 Loft - WI 2261-AU17-WRP GRIZ H 2 07:34:57.00 25.161 00:12:40 Yes
33 Money Loft - MN 11950-AU17-ARPU Blue eyes white dragon BB H 2 07:35:08.00 25.095 00:12:51 Yes
34 Purple House - MN 1802-AU17-RVR BB H 1 07:35:14.00 25.059 00:12:57 Yes
35 Wup Flyers - WI 1606-AU17-NFL Nielsen Express BC H 2 07:35:29.00 24.970 00:13:12 Yes
36 Wup Flyers - WI 1601-AU17-NFL Wild Billy DC H 3 07:35:52.00 24.835 00:13:35 Yes
37 Wings On Fire - MN 0540-AU17-UNIT DCWF H 1 07:35:55.00 24.818 00:13:38 Yes
38 Wings On Fire - MN 9860-AU17-JEDD BC H 2 07:35:58.00 24.800 00:13:41 Yes
39 Ranger Loft - MN 0043-AU17-UNIT BB H 1 07:36:05.00 24.760 00:13:48 Yes
40 Chris Holden - WI 6502-AU17-RCR SILV H 3 07:36:09.00 24.736 00:13:52 Yes
41 T J & T - MN 0208-AU17-TSR BLK H 1 07:36:14.00 24.708 00:13:57 Yes
42 Midwest Loft Peter - WI 0699-AU17-MIDW Off Deep 35 BC H 2 07:36:26.00 24.638 00:14:09 Yes
43 Wild Wings Loft - MA 9006-AU17-JEDD Potus BB H 1 07:36:31.00 24.610 00:14:14 Yes
44 Gold Wing Loft - WI 0013-AU17-GWL CHOC H 1 07:36:33.00 24.598 00:14:16 Yes
45 Bourgoin - MN 0073-AU17-BOUR Maximus BC H 1 07:36:49.00 24.507 00:14:32 Yes
46 Minnesoldier Loft - WI 64053-AU17-ARPU VI BB H 1 07:37:23.00 24.315 00:15:06 Yes
47 Wings On Fire - MN 0224-AU17-UNIT BC H 3 07:37:31.00 24.270 00:15:14 Yes
48 Silver Loft - MN 0707-AU17-UNIT BBWF H 2 07:38:12.00 24.044 00:15:55 Yes
49 T J & T - MN 5551-AU17-MM BB H 2 07:38:16.00 24.022 00:15:59 Yes
50 Ranger Loft - MN 0033-AU17-UNIT DC H 2 07:38:22.00 23.989 00:16:05 Yes
51 Prospector Loft/ Krug - IA 0050-AU17-PROS DKCH H 2 07:38:29.00 23.951 00:16:12 Yes
52 Hoffman Loft - MN 4213-AU17-MM WGRZ H 1 07:38:32.00 23.935 00:16:15 Yes
53 Eng Loft - MN 0018-AU17-ENG BlackFigo x MsNero BB H 1 07:38:46.00 23.859 00:16:29 Yes
54 Goodfeathers - MN 0729-AU17-MPC BB H 2 07:39:08.00 23.741 00:16:51 Yes
55 Avens Loft - MN 29254-AU17-AA BCWP H 1 07:39:14.00 23.709 00:16:57 Yes
56 Lucky Ali - MN 69081-AU17-ARPU BB H 1 07:39:23.00 23.661 00:17:06 Yes
57 Midwest Loft Peter - WI 0661-AU17-MIDW Deeps Direct BC H 3 07:39:34.00 23.603 00:17:17 Yes
58 Mark Huebsch - MN 23310-AU17-AA BRON H 1 07:39:38.00 23.582 00:17:21 Yes
59 Gary Johnson - WI 6206-AU17-RCR GRIZ H 1 07:40:33.00 23.296 00:18:16 Yes
60 Larry Jensen - IA 0165-AU17-SCIA DC H 1 07:40:48.00 23.219 00:18:31 Yes
61 Avens Loft - MN 29260-AU17-AA BBWS H 2 07:41:26.00 23.027 00:19:09 Yes
62 Larry Jensen - IA 0164-AU17-SCIA DC H 2 07:41:34.00 22.987 00:19:17 Yes
63 Sandstrom Brothers Loft - MN 0742-AU17-SBL BC H 1 07:43:53.00 22.311 00:21:36 Yes
64 Dennis Imdieke - MN 4107-AU17-MM BBWF H 1 07:43:56.00 22.297 00:21:39 Yes
65 Staker - MN 0201-AU17-TSR BB H 1 07:44:07.00 22.246 00:21:50 Yes
66 Nanez Family Lofts - WI 4070-AU17-NANZ BBWF H 1 07:44:09.00 22.236 00:21:52 Yes
67 Laemele Loft - MN 0753-AU17-UNIT BCWF H 2 07:45:05.00 21.977 00:22:48 Yes
68 Ahmad & Muhamed's Loft - MN 0082-AU17-LUCK DC H 1 07:45:12.00 21.945 00:22:55 Yes
69 Shamrock Loft Of Mi - MI 0448-AU17-NWM BB H 2 07:45:24.00 21.891 00:23:07 Yes
70 Goodfeathers - MN 0738-AU17-MPC BBWF H 3 07:45:27.00 21.877 00:23:10 Yes
71 Rocky Coulee Loft - WI 6300-AU17-RCR RDCH H 2 07:45:45.00 21.796 00:23:28 Yes
72 Money Loft - MN 11957-AU17-ARPU Miss Washington BBWF H 3 07:45:53.00 21.760 00:23:36 Yes
73 Reignfire Loft - MN 12851-AU17-ARPU Jafong BCWF H 2 07:45:59.00 21.733 00:23:42 Yes
74 Dank Loft - MN 4803-AU17-MM BB H 2 07:46:04.00 21.711 00:23:47 Yes
75 Liab Family Loft - MN 0490-AU17-LIAB Flash Gun BB H 2 07:46:09.00 21.688 00:23:52 Yes
76 Sandstrom Brothers Loft - MN 0745-AU17-SBL BCWF H 2 07:46:17.00 21.653 00:24:00 Yes
77 Nanez Family Lofts - WI 4091-AU17-NANZ BBPD H 2 07:46:31.00 21.591 00:24:14 Yes
78 Camntx.Combo - MN 0081-AU17-EISN E 274 + GB 12307 BC H 1 07:46:37.00 21.564 00:24:20 Yes
79 Money Loft - MN 11946-AU17-ARPU FiFi BB H 4 07:46:46.00 21.525 00:24:29 Yes
80 Laemele Loft - MN 0769-AU17-UNIT BB H 3 07:46:52.00 21.498 00:24:35 Yes
81 Bandido Loft - MN 1714-AU17-RVR BBWF H 3 07:46:56.00 21.481 00:24:39 Yes
82 Scotts Loft - IN 2330-AU17-IND BB H 1 07:47:02.00 21.455 00:24:45 Yes
83 Bourgoin - MN 0076-AU17-BOUR Horse Power BB H 2 07:47:09.00 21.424 00:24:52 Yes
84 Bandido Loft - MN 1766-AU17-RVR BC H 4 07:47:12.00 21.411 00:24:55 Yes
85 Breeder Unassigned - OR 0096-AU17-LUCK BB C 1 07:47:15.00 21.398 00:24:58 Yes
86 Silver Loft - MN 0711-AU17-UNIT BBWF H 3 07:47:17.00 21.390 00:25:00 Yes
87 Homestead Loft - WI 0505-AU17-NWM BB H 1 07:47:22.00 21.368 00:25:05 Yes
88 Cherokee Loft - MI 0154-AU17-CHER BB H 3 07:47:37.00 21.303 00:25:20 Yes
89 Avens Loft - MN 0560-AU17-UNIT BB H 3 07:47:51.00 21.243 00:25:34 Yes
90 Sandstrom Brothers Loft - MN 0738-AU17-SBL BBWF H 3 07:48:09.00 21.167 00:25:52 Yes
91 Midwest Loft Peter - WI 0397-AU17-ROYL SKYS BEST BB H 4 07:48:20.00 21.120 00:26:03 Yes
92 Silver Loft - MN 0717-AU17-UNIT BLK H 4 07:48:25.00 21.099 00:26:08 Yes
93 Avens Loft - MN 0561-AU17-UNIT BB H 4 07:48:30.00 21.078 00:26:13 Yes
94 Bourgoin Family Lofts - MN 0065-AU17-BOUR Avatar SILV H 1 07:48:42.00 21.027 00:26:25 Yes
95 Ranger Loft - MN 0038-AU17-UNIT BC H 3 07:48:45.00 21.015 00:26:28 Yes
96 Lucky Ali - MN 0095-AU17-LUCK BCPD H 2 07:48:51.00 20.990 00:26:34 Yes
97 Camntx.Combo - MN 0080-AU17-EISN JD 5935 + LF 0340 BC H 2 07:48:59.00 20.957 00:26:42 Yes
98 Hoffman Loft - MN 4206-AU17-MM BRNZ H 2 07:49:12.00 20.903 00:26:55 Yes
99 Sand Hill Loft - WI 0801-AU17-TSR BB H 1 07:49:17.00 20.882 00:27:00 Yes
100 Chris Holden - WI 6549-AU17-RCR BC H 4 07:50:51.00 20.501 00:28:34 Yes

There are 193 bird records

Note: These Race Results are unofficial and subject to change until verified by the Race Committee and declared final.

;